Zurück zum Katalog

STARLINK-34371

AktivKommunikationVLEO
NORAD 64756·PAYLOAD·🇺🇸 United States

Gestartet Jul 8, 2025 von Cape Canaveral Space Force Station

Loading…

Nächste Überflüge (nächste 24 Stunden)

TLE

AktuellSource: CelesTrak SupGP

Epoche: Sep 14, 2026, 21:22 UTC

1 64756C 25147B   26257.89076389 -.00018308  00000+0 -58890-3 0  2570
2 64756  53.1580  82.6116 0001165  85.8921  68.6196 15.31702477    16

Verfolge STARLINK-34371 in Echtzeit mit AllMySat

Download on the App Store